Torna al catalogo

NEONSAT-1

AttivoScienzaSSO
NORAD 59587·PAYLOAD·🇰🇷 South Korea

Lanciato Apr 23, 2024 da Rocket Lab Launch Complex 1

Loading…

Prossimi Passaggi (prossime 24 ore)

TLE

AggiornatoSource: Space-Track

Epoca: Sep 14, 2026, 21:39 UTC

1 59587U 24077A   26257.90213553  .00012558  00000-0  31103-3 0  9996
2 59587  97.3445 342.2230 0009044  73.2633 286.9605 15.40510712133532

Traccia NEONSAT-1 in tempo reale con AllMySat

Download on the App Store